Cloud_Cover
0 0 0 0 0 0 0 0 0 0 0 0 0 0 0 0 0 0 0 0 0 2 28 12 0 0 0 0 0 0 12 0 5 19 4 11 5 47 33 28 5 5 46 26 86 100 100 98 5
0 0 0 0 0 0 0 0 0 0 0 0 0 0 0 0 0 0 0 0 0 0 18 50 0 0 0 0 0 0 1 96 44 1 13 40 34 90 79 26 5 8 65 85 98 100 99 10 5
0 0 0 0 0 0 0 0 0 0 0 0 0 0 0 0 0 0 0 0 0 0 0 0 0 0 0 0 0 0 3 9 13 44 98 33 100 100 92 100 98 93 100 100 100 96 68 5 5
0 0 0 0 0 0 0 0 0 0 0 0 0 0 0 0 0 0 0 0 0 0 0 0 0 57 2 0 0 34 85 78 100 40 100 100 100 100 100 100 100 100 89 91 100 100 100 80 25
0 0 0 0 3 4 0 0 0 0 0 0 0 0 0 0 0 0 0 0 0 10 1 0 50 51 88 98 75 17 5 100 100 100 100 100 100 100 100 100 100 100 100 100 96 95 92 100 100
0 0 0 3 12 0 0 0 0 0 0 0 0 0 0 0 0 0 0 0 0 26 15 14 26 5 2 28 22 4 2 85 100 91 100 100 100 100 100 100 100 100 100 100 85 98 100 100 100
0 0 1 3 0 0 0 0 0 0 0 0 0 0 0 0 0 0 0 0 0 2 8 11 29 2 0 0 0 2 5 31 7 99 100 100 100 100 100 100 100 100 100 100 85 94 44 100 100
9 0 2 5 0 0 0 0 0 0 0 0 0 0 0 0 0 0 0 0 0 3 9 10 31 100 79 33 10 5 5 2 8 100 100 100 100 100 100 100 100 100 100 70 100 100 97 99 100
8 5 3 7 0 1 0 0 0 0 1 2 0 0 0 0 0 0 0 0 0 0 1 18 25 99 91 27 54 25 76 99 79 51 100 100 100 100 100 100 100 100 100 36 41 58 40 36 99
100 86 82 18 99 1 0 0 24 2 25 0 0 0 0 0 0 0 0 0 0 0 0 7 12 100 80 53 99 81 99 100 79 70 100 100 100 100 100 100 100 100 82 27 74 5 4 38 89
97 5 74 100 10 0 0 63 68 8 3 2 3 4 0 0 0 0 0 0 0 0 8 16 19 100 36 92 100 100 100 100 100 81 100 100 100 100 100 100 100 100 98 88 46 46 5 65 100
66 35 99 100 8 8 44 36 100 2 5 5 4 5 0 0 0 1 0 0 0 0 1 17 11 16 9 81 100 100 100 100 100 100 100 100 100 100 100 100 100 100 100 96 97 46 30 95 100
100 100 100 100 100 45 46 40 94 66 0 1 0 5 0 0 4 5 0 0 0 0 28 44 16 17 79 99 100 100 100 100 100 100 100 100 100 100 100 100 100 100 100 72 86 72 74 96 95
100 100 100 100 100 100 100 100 76 63 1 4 5 5 1 0 5 5 4 0 0 5 52 30 13 2 100 100 100 100 100 100 100 100 100 100 100 100 100 100 100 100 100 90 88 100 79 60 100
100 100 100 100 100 100 100 71 79 5 0 0 0 5 4 0 5 5 5 0 0 0 31 32 26 5 17 22 92 100 100 100 100 100 100 100 100 100 100 100 100 100 100 100 100 93 100 63 100
100 100 98 100 74 93 94 91 22 5 0 0 0 0 4 0 4 5 5 0 0 30 38 38 35 18 42 100 100 100 100 100 100 100 100 100 100 100 100 100 100 100 91 99 80 100 100 92 100
87 94 59 96 29 32 21 4 5 1 0 1 0 0 5 0 4 5 5 4 0 31 70 92 26 31 66 65 100 100 100 100 100 100 100 100 100 100 100 100 100 100 100 89 100 100 100 100 100
99 6 2 6 49 79 2 0 0 0 0 0 0 0 0 0 0 5 10 6 5 38 69 100 53 88 85 100 100 100 100 100 100 100 100 100 100 100 100 100 100 100 100 100 100 100 100 100 100
5 5 5 5 55 16 4 0 0 0 0 3 0 0 0 5 0 5 13 5 26 72 83 100 100 96 100 100 100 100 100 100 100 100 100 100 100 100 100 100 100 100 100 100 100 100 100 100 100
31 5 5 5 5 6 3 0 0 0 4 0 0 0 1 5 5 3 52 18 9 92 58 46 80 100 77 100 100 100 98 100 100 100 100 100 100 100 100 100 100 100 100 100 100 100 100 100 100
28 4 5 4 5 43 40 0 0 0 0 0 0 0 2 90 5 5 96 5 27 79 84 0 5 100 100 100 97 100 100 100 100 100 100 100 100 100 100 100 100 100 100 100 100 100 100 100 100
1 4 1 0 2 2 24 44 0 2 3 4 0 1 5 100 8 5 96 7 75 49 42 12 11 81 100 100 100 100 100 100 100 100 100 98 100 100 100 100 100 100 100 100 100 100 100 100 100
59 5 0 0 0 32 5 72 0 6 0 6 64 16 100 100 85 5 76 32 100 43 54 33 96 94 98 100 100 100 100 100 100 100 100 96 100 100 100 100 100 100 100 100 100 100 100 100 100
5 4 2 1 17 84 2 24 0 25 44 100 100 60 100 100 100 26 22 76 100 42 71 100 100 100 100 100 100 100 100 100 90 100 100 100 97 94 100 100 100 100 100 100 100 100 100 100 100
5 27 37 100 100 28 2 5 94 88 65 100 100 52 100 100 100 98 6 99 100 86 52 97 100 100 100 69 97 100 100 100 87 78 34 67 97 100 100 100 100 100 100 100 100 100 100 100 100
0 26 72 99 69 24 6 23 27 74 100 100 98 28 100 100 100 100 61 58 100 70 18 23 79 94 99 56 96 100 100 100 100 97 11 0 4 100 100 100 100 100 100 100 100 100 100 100 100
2 50 93 100 100 97 89 7 100 100 100 100 100 60 99 100 100 100 80 100 100 100 100 5 6 3 10 12 80 100 100 100 100 100 100 22 3 5 21 100 100 100 100 100 100 100 100 100 100
5 61 100 100 96 100 100 78 100 100 100 100 100 99 84 100 100 100 81 100 100 100 100 86 10 5 0 0 1 63 100 100 100 100 100 100 100 48 85 73 84 99 100 100 100 100 100 100 100
7 100 100 100 100 100 100 100 100 100 100 100 36 64 74 99 100 100 100 100 100 100 100 100 100 30 4 0 5 6 100 100 100 100 100 100 100 100 86 56 54 44 65 50 45 40 67 100 100
97 85 100 100 100 96 100 100 100 100 100 100 100 89 91 6 100 100 100 100 100 100 100 100 100 78 5 3 14 5 38 100 100 100 38 81 100 100 100 100 92 22 21 0 0 0 5 95 36